Find Starlink 30567

NORAD ID: 58067 Int'l Des: 2023-158 Owner: SPXS Country: US Constellation: starlink operational
LEOCIRCULAR

現在のビュー

3D地球を読み込み中...

About Starlink 30567

Starlink 30567 (NORAD 58067) is a starlink constellation satellite (v2 mini) launched Oct 13, 2023 by SPXS of US. It operates in LEO, CIRCULAR orbit with a mass of 730.00 kg.

Starlink 30567について

説明を読み込み中...

次回通過

Passes for default location (London). Set your location on the main map for personalized predictions.

高度履歴

Loading altitude history...

軌道要素

1 58067U 23158S 26178.12851796 .00002388 00000-0 96165-4 0 9990
2 58067 43.0044 129.2868 0001315 265.5888 94.4814 15.27620543150305
Epoch: Jun 27, 2026 • Age: 16 hours

現在のステータス

高度 483.1 km
速度 7.63 km/s
衛星直下点 -3.49°S, 99.46°E
打ち上げ日 Oct 13, 2023
運用期間 2.7 years
タイプ internet

技術仕様

分類 Payload
質量 730.00 kg
乾燥質量 700.00 kg
総質量 730.00 kg
長さ 0.30 m
直径 4.10 m
スパン 29.00 m
形状 Box + pan
製造者 SPXS
バスタイプ Starlink V2M
フェーズステータス In Orbit
所有者/国 SPXS/US

Most Searched